| time (UTC) | temp F | wind direction | speed MPH | gust MPH | rain 1hr in | rain 24hr in | rain mn in | humidity % | barometer mb |
| 20260505041519 | 53 | 248 | 5.0 | 14.0 | 0.00 | 0.00 | 0.00 | 75 | 1011.1 |
| 20260505040519 | 54 | 225 | 6.0 | 14.0 | 0.00 | 0.00 | 0.00 | 74 | 1011.0 |
| 20260505040019 | 54 | 225 | 4.0 | 10.0 | 0.00 | 0.00 | 0.00 | 74 | 1011.0 |
| 20260505035018 | 54 | 248 | 4.0 | 14.0 | 0.00 | 0.00 | 0.00 | 73 | 1010.8 |
| 20260505034019 | 55 | 248 | 5.0 | 12.0 | 0.00 | 0.00 | 0.00 | 72 | 1010.8 |
| 20260505033517 | 55 | 248 | 4.0 | 12.0 | 0.00 | 0.00 | 0.00 | 72 | 1010.9 |
| 20260505032517 | 55 | 248 | 3.0 | 13.0 | 0.00 | 0.00 | 0.00 | 70 | 1010.8 |
| 20260505031520 | 55 | 270 | 4.0 | 10.0 | 0.00 | 0.00 | 0.00 | 70 | 1010.8 |
| 20260505030521 | 56 | 270 | 3.0 | 11.0 | 0.00 | 0.00 | 0.00 | 69 | 1010.8 |
| 20260505025523 | 56 | 270 | 5.0 | 14.0 | 0.00 | 0.00 | 0.00 | 69 | 1010.8 |
| 20260505024519 | 56 | 248 | 4.0 | 12.0 | 0.00 | 0.00 | 0.00 | 69 | 1010.8 |
| 20260505023521 | 56 | 270 | 6.0 | 15.0 | 0.00 | 0.00 | 0.00 | 68 | 1010.8 |
| 20260505022521 | 56 | 270 | 6.0 | 16.0 | 0.00 | 0.00 | 0.00 | 68 | 1010.8 |
| 20260505021520 | 56 | 270 | 9.0 | 18.0 | 0.00 | 0.00 | 0.00 | 68 | 1010.8 |
| 20260505020521 | 56 | 270 | 9.0 | 18.0 | 0.00 | 0.00 | 0.00 | 68 | 1010.8 |
| 20260505015519 | 56 | 270 | 8.0 | 20.0 | 0.00 | 0.00 | 0.00 | 68 | 1010.6 |
| 20260505015019 | 56 | 270 | 9.0 | 20.0 | 0.00 | 0.00 | 0.00 | 68 | 1010.5 |
| 20260505014021 | 56 | 270 | 6.0 | 14.0 | 0.00 | 0.00 | 0.00 | 68 | 1010.5 |
| 20260505013019 | 56 | 270 | 6.0 | 15.0 | 0.00 | 0.00 | 0.00 | 68 | 1010.3 |
| 20260505012021 | 56 | 270 | 6.0 | 14.0 | 0.00 | 0.00 | 0.00 | 67 | 1010.1 |
| 20260505011025 | 57 | 270 | 9.0 | 20.0 | 0.00 | 0.00 | 0.00 | 66 | 1009.8 |
| 20260505010017 | 58 | 270 | 9.0 | 17.0 | 0.00 | 0.00 | 0.00 | 63 | 1009.6 |
| 20260505005021 | 59 | 270 | 7.0 | 18.0 | 0.00 | 0.00 | 0.00 | 62 | 1009.4 |
| 20260505004019 | 59 | 248 | 6.0 | 14.0 | 0.00 | 0.00 | 0.00 | 61 | 1009.4 |
| 20260505003041 | 59 | 270 | 6.0 | 13.0 | 0.00 | 0.00 | 0.00 | 60 | 1009.1 |
| 20260505002021 | 60 | 248 | 6.0 | 16.0 | 0.00 | 0.00 | 0.00 | 58 | 1008.8 |
| 20260505001019 | 61 | 248 | 9.0 | 19.0 | 0.00 | 0.00 | 0.00 | 57 | 1008.4 |
| 20260505000021 | 60 | 248 | 8.0 | 21.0 | 0.00 | 0.00 | 0.00 | 60 | 1008.4 |
| 20260504235019 | 60 | 248 | 10.0 | 19.0 | 0.00 | 0.00 | 0.00 | 60 | 1008.3 |
| 20260504234019 | 60 | 270 | 8.0 | 16.0 | 0.00 | 0.00 | 0.00 | 61 | 1008.2 |
| 20260504233019 | 59 | 248 | 8.0 | 22.0 | 0.00 | 0.00 | 0.00 | 63 | 1007.9 |
| 20260504232021 | 60 | 248 | 9.0 | 20.0 | 0.00 | 0.00 | 0.00 | 60 | 1007.8 |
| 20260504231018 | 60 | 225 | 7.0 | 17.0 | 0.00 | 0.00 | 0.00 | 62 | 1007.6 |
| 20260504230019 | 59 | 225 | 6.0 | 14.0 | 0.00 | 0.00 | 0.00 | 64 | 1007.6 |
| 20260504225019 | 60 | 248 | 7.0 | 16.0 | 0.00 | 0.00 | 0.00 | 62 | 1007.6 |
| 20260504224542 | 60 | 248 | 7.0 | 20.0 | 0.00 | 0.00 | 0.00 | 61 | 1007.5 |
| 20260504223609 | 59 | 225 | 6.0 | 14.0 | 0.00 | 0.00 | 0.00 | 63 | 1007.4 |
| 20260504222519 | 60 | 225 | 6.0 | 18.0 | 0.00 | 0.00 | 0.00 | 62 | 1007.3 |
| 20260504221542 | 60 | 248 | 7.0 | 20.0 | 0.00 | 0.00 | 0.00 | 61 | 1007.3 |
| 20260504220521 | 61 | 248 | 4.0 | 15.0 | 0.00 | 0.00 | 0.00 | 58 | 1007.3 |
| 20260504215521 | 62 | 225 | 5.0 | 13.0 | 0.00 | 0.00 | 0.00 | 55 | 1007.2 |
| 20260504214519 | 64 | 225 | 6.0 | 16.0 | 0.00 | 0.00 | 0.00 | 51 | 1007.1 |
| 20260504213519 | 70 | 203 | 4.0 | 12.0 | 0.00 | 0.00 | 0.00 | 39 | 1007.0 |
| 20260504212519 | 70 | 248 | 4.0 | 11.0 | 0.00 | 0.00 | 0.00 | 38 | 1006.9 |
| 20260504211519 | 70 | 248 | 4.0 | 14.0 | 0.00 | 0.00 | 0.00 | 39 | 1006.9 |
| 20260504210519 | 70 | 225 | 4.0 | 11.0 | 0.00 | 0.00 | 0.00 | 39 | 1006.8 |
| 20260504205521 | 70 | 248 | 5.0 | 12.0 | 0.00 | 0.00 | 0.00 | 40 | 1006.9 |
| 20260504204559 | 71 | 225 | 2.0 | 9.0 | 0.00 | 0.00 | 0.00 | 37 | 1007.0 |
| 20260504203521 | 71 | 248 | 6.0 | 15.0 | 0.00 | 0.00 | 0.00 | 34 | 1006.9 |
| 20260504202519 | 71 | 248 | 5.0 | 13.0 | 0.00 | 0.00 | 0.00 | 37 | 1006.9 |
| 20260504201519 | 72 | 248 | 6.0 | 15.0 | 0.00 | 0.00 | 0.00 | 35 | 1007.0 |
| 20260504200519 | 71 | 270 | 10.0 | 20.0 | 0.00 | 0.00 | 0.00 | 33 | 1006.8 |
| 20260504195607 | 71 | 248 | 5.0 | 13.0 | 0.00 | 0.00 | 0.00 | 37 | 1006.8 |
| 20260504194519 | 71 | 270 | 9.0 | 20.0 | 0.00 | 0.00 | 0.00 | 32 | 1006.9 |
| 20260504193518 | 73 | 270 | 6.0 | 14.0 | 0.00 | 0.00 | 0.00 | 32 | 1006.8 |
| 20260504192521 | 72 | 270 | 8.0 | 16.0 | 0.00 | 0.00 | 0.00 | 34 | 1006.9 |
| 20260504191521 | 71 | 270 | 7.0 | 15.0 | 0.00 | 0.00 | 0.00 | 35 | 1006.8 |
| 20260504190521 | 71 | 270 | 10.0 | 25.0 | 0.00 | 0.00 | 0.00 | 33 | 1007.2 |
| 20260504185605 | 71 | 270 | 7.0 | 13.0 | 0.00 | 0.00 | 0.00 | 35 | 1007.0 |
| 20260504184627 | 70 | 270 | 8.0 | 19.0 | 0.00 | 0.00 | 0.00 | 35 | 1007.3 |
| 20260504184123 | 70 | 248 | 9.0 | 17.0 | 0.00 | 0.00 | 0.00 | 34 | 1007.1 |
| 20260504182734 | 70 | 270 | 11.0 | 25.0 | 0.00 | 0.00 | 0.00 | 34 | 1007.4 |
| 20260504174519 | 69 | 270 | 12.0 | 26.0 | 0.00 | 0.00 | 0.00 | 36 | 1007.6 |
| 20260504174101 | 69 | 270 | 12.0 | 30.0 | 0.00 | 0.00 | 0.00 | 35 | 1007.7 |
| 20260504171810 | 68 | 270 | 9.0 | 19.0 | 0.00 | 0.00 | 0.00 | 40 | 1007.7 |
| 20260504150518 | 64 | 225 | 5.0 | 12.0 | 0.00 | 0.01 | 0.00 | 49 | 1009.4 |
| 20260504140520 | 63 | 270 | 9.0 | 16.0 | 0.00 | 0.02 | 0.00 | 45 | 1009.9 |
| 20260504130518 | 56 | 270 | 3.0 | 9.0 | 0.00 | 0.02 | 0.00 | 56 | 1010.4 |
| 20260504110538 | 50 | 270 | 2.0 | 7.0 | 0.00 | 0.02 | 0.00 | 61 | 1011.1 |
| 20260504100520 | 48 | 270 | 2.0 | 8.0 | 0.00 | 0.02 | 0.00 | 61 | 1010.9 |
| 20260504081541 | 49 | 293 | 5.0 | 12.0 | 0.00 | 0.02 | 0.00 | 55 | 1010.7 |
| 20260504080542 | 49 | 270 | 7.0 | 12.0 | 0.00 | 0.02 | 0.00 | 54 | 1010.6 |
| 20260504050019 | 45 | 270 | 4.0 | 9.0 | 0.00 | 0.02 | 0.00 | 58 | 1010.5 |